Home > Weather > Perchtoldsdorf > Past weeks

Flag for Austria Past Weather in Perchtoldsdorf, Lower Austria, Austria — Yesterday and Last 2 Weeks

Now
81 °F

Clear.


Feels Like: 84 °F
Forecast: 70 / 87 °F
Wind: 3 mph from Southwest

Location: Wien / Hohe Warte

Current Time: Jun 25, 2016 at 12:16:53 AM

Latest Report: Jun 24, 2016 at 11:00 PM


Visibility: 19 mi

Pressure: 29.95 "Hg

Humidity: 66%

Dew Point: 68 °F

Location of PerchtoldsdorfLocation

Past Weather in Perchtoldsdorf — Graph

°F

Perchtoldsdorf Temperature Yesterday

Maximum temperature yesterday: 91 °F (at 5:00 PM)
Minimum temperature yesterday: 67 °F (at 5:00 AM)
Average temperature yesterday: 80 °F

High & Low Weather Summary for the Past Weeks

 TemperatureHumidityPressure
High91 °F (Jun 24, 5:00 PM)96% (Jun 21, 4:00 AM)30.27 "Hg (Jun 21, 4:00 AM)
Low56 °F (Jun 21, 5:00 AM)36% (Jun 10, 6:00 PM)29.47 "Hg (Jun 17, 5:00 AM)
Average68 °F70%29.89 "Hg
* Reported Jun 9 11:00 PM — Jun 24 11:00 PM, Perchtoldsdorf, Weather by CustomWeather, © 2016

Note: Actual official high and low records may vary slightly from our data, if they occured in-between our weather recording intervals... More about our weather records

Advertising

Perchtoldsdorf Weather History for the Previous 24 Hours

Scroll right to see more
 ConditionsComfort  
Time TempWeatherWind HumidityBarometerVisibility
11:00 PM
Fri, Jun 24
81 °FClear.3 mph66%29.95 "Hg19 mi
10:00 PM84 °FClear.3 mph59%29.96 "Hg19 mi
9:00 PM85 °FClear.5 mph55%29.94 "Hg19 mi
8:00 PM87 °FWarm.3 mph51%29.94 "HgN/A
7:00 PM88 °FPassing clouds.5 mph49%29.94 "Hg15 mi
6:00 PM90 °FPassing clouds.6 mph47%29.95 "Hg15 mi
5:00 PM91 °FPassing clouds.5 mph44%29.96 "Hg16 mi
4:00 PM91 °FPassing clouds.7 mph44%29.97 "Hg17 mi
3:00 PM90 °FPassing clouds.8 mph47%29.99 "Hg16 mi
2:00 PM90 °FPassing clouds.6 mph49%30.00 "Hg16 mi
1:00 PM88 °FPassing clouds.6 mph49%30.02 "Hg15 mi
12:00 PM87 °FSunny.7 mph52%30.03 "Hg14 mi
11:00 AM86 °FSunny.6 mph52%30.04 "Hg14 mi
10:00 AM83 °FSunny.3 mph61%30.05 "Hg14 mi
9:00 AM79 °FSunny.3 mph67%30.06 "Hg12 mi
8:00 AM76 °FSunny.2 mph72%30.07 "Hg12 mi
7:00 AM71 °FSunny.1 mph80%30.08 "Hg11 mi
6:00 AM68 °FSunny.1 mph86%30.09 "Hg12 mi
5:00 AM67 °FSunny.2 mph86%30.09 "Hg14 mi
4:00 AM68 °FMild.2 mph85%30.09 "HgN/A
3:00 AM68 °FMild.1 mph85%30.10 "HgN/A
2:00 AM69 °FClear.1 mph83%30.11 "Hg17 mi
1:00 AM70 °FMild.2 mph78%30.12 "HgN/A
12:00 AM71 °FMild.1 mph75%30.13 "HgN/A
Weather by CustomWeather, © 2016

See weather overviewHow to use our weather pages